Temp
6 6 6 6 6 6 6 7 7 7 7 7 7 7 7 8 10 12 13 12 13 13 11 9 10 10 10 11 11 12 13 13 13 13 13 13 14 14 14 14 14 14 13 14 13 13 13 13 13 13 13 13 14 14 14 13 13 13 13 13 14 15 14 14 14 15 17 18 19 19 19 19 18 19 19 19 20 21 20 21 22 23 22 22 22 21 24
6 6 7 7 7 7 7 7 7 7 7 7 7 7 7 6 7 9 11 12 12 12 10 9 9 9 10 11 11 12 13 12 12 12 12 12 12 13 13 13 14 13 13 13 13 13 13 13 13 13 13 13 14 14 14 13 13 13 13 13 14 14 13 14 15 16 19 21 21 20 19 18 17 17 17 18 19 19 19 21 23 23 22 23 22 21 24
7 7 7 7 7 7 7 7 7 7 7 7 7 7 7 7 7 8 10 12 11 10 9 8 8 8 9 10 11 11 12 12 12 12 12 12 12 12 13 13 13 12 12 13 13 13 13 13 13 13 13 13 14 14 13 13 13 13 14 14 14 13 12 13 14 16 18 20 20 18 16 15 15 16 17 17 18 18 19 21 21 21 22 23 22 22 25
7 7 7 7 7 7 7 7 7 7 7 7 7 6 7 9 10 9 9 10 10 9 9 8 8 8 8 9 10 10 10 11 12 12 11 11 12 12 12 12 12 11 11 11 12 12 13 13 13 12 12 13 13 14 13 13 13 13 14 14 13 13 13 13 13 15 16 17 16 15 15 15 15 16 16 17 17 18 19 20 20 21 22 22 23 24 25
7 7 7 7 7 7 7 7 7 7 7 7 7 7 7 9 9 8 8 9 9 9 9 8 8 8 8 9 10 10 10 10 11 11 11 11 11 12 12 12 11 10 10 10 10 11 12 13 12 12 12 13 13 14 13 13 13 13 13 13 13 12 12 13 13 14 14 15 14 15 15 15 15 15 16 16 17 17 18 19 20 21 22 21 25 26 25
7 7 7 7 7 7 7 8 7 7 7 8 8 8 8 8 9 8 8 8 8 8 9 8 8 8 9 10 10 10 10 10 10 10 11 11 11 11 11 11 10 10 10 9 10 11 11 11 12 12 12 12 13 13 13 13 13 13 12 12 12 12 12 13 13 13 14 14 15 15 15 15 15 15 15 16 16 17 18 18 19 21 20 21 25 27 26
7 7 7 7 7 7 7 8 8 8 7 8 8 8 8 8 8 8 9 8 8 8 9 8 8 9 10 10 10 10 10 10 10 10 10 10 10 10 10 10 10 9 9 9 9 10 10 10 11 11 12 12 12 12 12 12 12 12 11 11 12 11 11 13 13 13 14 14 14 15 15 15 15 15 16 17 17 18 19 19 20 20 20 22 24 24 26
7 7 7 7 7 7 7 8 8 7 7 8 8 8 8 8 8 8 8 8 8 8 8 8 8 9 9 10 10 10 10 10 9 10 9 9 9 10 9 9 9 9 9 9 9 10 10 10 10 11 11 11 11 11 11 12 11 11 11 11 11 11 11 13 13 13 13 14 15 15 15 15 15 16 17 18 18 19 20 20 20 21 21 22 23 23 25
7 7 7 7 7 7 7 8 8 7 7 7 8 8 8 8 8 8 8 8 9 9 9 8 8 9 9 9 10 10 10 10 9 9 10 9 9 9 9 9 9 9 9 9 9 10 10 10 11 11 10 10 11 11 12 12 11 10 10 10 11 11 11 13 13 12 13 15 15 15 15 15 15 16 17 18 19 19 20 20 20 20 20 23 23 23 24
7 7 7 7 7 7 7 8 8 7 7 7 7 8 8 8 8 8 8 8 9 9 9 8 8 9 10 10 10 10 10 10 9 8 9 10 9 9 9 9 9 8 8 9 10 11 11 11 11 11 11 11 11 11 12 12 11 10 10 10 10 10 11 11 12 13 13 14 14 14 14 16 17 17 17 18 18 18 19 19 19 19 19 21 22 22 22
7 7 7 7 7 7 8 8 8 7 7 7 7 7 8 7 7 8 8 8 8 8 8 8 9 9 10 10 10 9 9 10 9 8 9 9 10 10 9 9 9 8 9 10 11 11 11 11 11 11 11 11 11 11 12 12 12 11 10 10 10 10 10 11 12 12 13 14 14 13 15 17 18 18 17 17 17 18 17 18 18 18 18 19 20 20 21
7 7 7 7 7 7 7 8 8 8 7 7 7 7 7 7 7 8 8 8 8 8 8 9 9 9 9 9 9 9 9 9 9 9 8 9 9 10 10 9 9 9 10 11 11 11 11 11 11 11 11 11 11 11 11 11 11 12 11 10 10 10 10 11 11 12 12 13 13 14 16 17 17 17 17 17 17 17 17 17 18 17 17 17 18 19 20
7 7 7 7 7 7 8 8 8 8 7 7 7 7 7 7 7 8 8 8 8 8 8 9 9 9 9 9 9 10 10 9 9 9 9 9 9 9 10 10 9 10 11 11 10 10 10 10 11 11 11 11 11 11 11 11 11 11 11 11 11 10 10 10 11 12 12 13 13 15 17 17 17 17 16 16 17 17 16 17 18 17 16 16 16 17 19
7 7 7 7 8 8 8 8 8 8 8 7 7 7 7 7 7 8 8 8 8 9 9 9 9 9 9 9 9 9 9 9 9 9 9 9 9 9 10 10 11 11 11 10 10 10 10 10 10 10 10 11 10 11 11 11 12 11 11 11 11 10 10 10 11 12 12 12 13 14 16 17 16 16 15 15 15 16 15 16 17 17 16 16 15 16 17
7 7 7 7 8 8 8 8 8 8 8 7 7 7 7 7 7 7 8 8 8 9 9 9 9 9 9 9 9 9 9 9 8 9 9 9 9 10 10 11 11 11 11 10 10 10 10 9 9 9 10 10 10 10 10 11 12 12 11 11 11 10 10 10 11 12 12 12 12 13 16 17 16 15 14 14 15 16 15 15 17 17 15 15 15 15 16
7 7 7 7 8 8 8 8 8 8 8 8 8 8 8 8 8 7 8 8 8 9 9 9 9 9 9 9 9 9 8 8 8 8 9 9 9 10 10 11 11 11 10 10 10 10 9 9 9 9 10 10 10 10 10 10 11 11 11 11 10 10 10 10 10 11 11 11 12 13 16 16 14 13 14 14 15 16 16 16 17 16 15 15 15 15 15
7 7 7 8 8 8 8 8 8 8 8 8 8 8 8 8 8 8 8 8 8 8 9 9 9 9 8 9 9 9 9 9 9 9 8 9 9 9 10 10 11 11 10 10 10 9 9 9 9 9 10 10 9 9 10 10 10 10 10 10 9 9 9 9 10 10 11 11 12 13 15 15 14 13 14 14 14 15 16 18 18 15 14 14 14 14 15
7 7 8 8 8 8 8 8 8 8 8 8 8 8 8 8 8 8 8 8 8 8 9 10 9 9 9 9 9 9 9 9 9 9 8 9 9 9 9 10 10 10 10 10 9 9 9 9 9 9 10 10 9 9 10 10 10 10 10 9 9 10 10 10 10 11 11 11 12 13 14 14 14 13 13 14 15 16 17 18 16 14 13 14 13 14 14
7 7 8 8 8 8 8 8 8 8 8 8 8 8 8 8 8 8 8 8 8 8 9 10 10 9 10 10 9 9 9 9 9 8 8 9 9 9 9 9 9 10 10 9 9 9 9 9 9 9 9 10 9 9 9 10 10 10 10 10 10 10 11 11 11 11 11 12 12 13 14 14 13 13 14 15 16 16 16 15 14 13 13 13 13 13 13
7 7 7 8 8 8 8 8 8 8 8 8 8 8 8 8 8 8 8 8 8 8 9 9 9 9 9 9 9 9 9 9 9 8 8 9 9 9 9 9 9 9 9 9 9 9 9 9 9 9 9 9 9 9 9 9 9 9 10 10 10 10 11 11 11 12 12 13 13 14 14 13 13 13 13 13 13 13 13 13 14 13 13 12 12 12 13
7 7 7 7 8 8 8 8 8 8 8 8 8 8 8 8 8 8 8 8 8 8 8 9 9 9 9 9 9 9 9 9 9 9 8 9 9 9 9 9 9 9 9 9 9 9 9 9 9 9 9 9 9 9 9 9 9 9 10 10 10 10 11 11 11 12 12 12 13 13 12 12 13 13 12 12 11 11 11 12 12 12 12 12 12 12 12
7 7 7 7 8 8 8 8 8 8 8 8 8 8 8 8 8 8 8 8 8 8 9 9 9 9 9 9 10 10 9 9 10 10 9 9 9 9 9 9 9 9 9 9 9 9 9 9 9 9 9 9 9 9 9 9 10 10 10 10 10 10 10 10 11 11 11 11 12 12 11 11 12 12 12 11 11 11 11 11 11 11 11 12 11 12 12
7 7 7 7 7 7 7 7 7 8 8 8 8 8 8 8 8 8 8 8 8 8 8 8 8 9 10 11 12 11 11 10 10 10 10 9 9 9 9 9 10 9 9 9 9 9 9 9 9 9 9 9 9 9 9 10 9 9 9 10 10 11 11 11 10 10 11 12 12 12 11 11 12 12 11 11 11 11 11 10 10 10 11 11 12 12 12
7 7 7 7 7 7 7 7 7 7 7 8 8 8 8 8 8 8 8 8 8 8 8 8 9 11 12 12 12 12 11 11 11 11 10 9 9 9 10 10 10 10 9 9 9 9 9 9 9 9 9 9 9 9 9 10 9 9 9 9 10 11 11 11 10 10 10 12 12 11 10 11 11 12 11 11 11 11 11 10 10 10 11 11 12 12 12
7 7 7 7 8 8 8 8 7 8 8 8 8 8 8 8 8 8 8 8 8 8 9 9 10 12 12 12 12 13 12 12 12 11 10 10 10 10 10 10 10 10 10 9 9 9 9 9 9 9 9 9 9 9 9 9 9 10 10 9 9 10 11 10 9 9 10 11 12 11 10 11 12 11 11 11 10 11 11 10 10 11 11 11 12 12 12
7 8 8 9 9 9 9 9 9 10 9 8 8 8 8 8 8 8 8 8 8 8 8 9 10 12 11 11 13 13 13 13 12 11 11 11 10 10 10 10 10 10 10 10 10 9 9 9 9 9 9 9 9 9 9 9 10 10 9 9 9 10 10 9 9 9 10 11 11 10 10 11 12 11 11 11 10 10 10 10 10 11 11 11 11 12 12
9 10 10 11 11 11 11 11 11 11 10 9 9 9 9 8 8 8 8 8 9 9 9 9 10 10 10 11 12 13 13 13 12 12 11 11 10 10 10 10 10 10 10 10 10 9 9 9 9 9 9 9 9 9 9 10 10 9 9 9 10 9 9 9 9 9 9 10 10 9 9 10 10 11 11 11 11 10 10 10 10 10 10 11 11 11 12
11 12 12 11 11 11 11 11 11 10 10 10 10 9 9 9 9 9 9 8 9 9 9 8 8 9 10 11 12 12 12 12 12 12 12 11 11 10 10 10 10 10 10 9 9 8 8 8 8 8 9 9 9 9 10 10 10 9 9 9 9 9 8 9 9 9 9 9 9 9 9 9 10 10 11 11 11 10 10 10 10 10 10 10 11 11 12
12 13 12 12 11 11 11 11 10 10 10 10 10 9 9 10 9 9 9 8 8 9 8 8 9 10 11 12 12 12 12 12 12 12 12 11 11 11 10 10 10 10 10 9 9 8 8 8 8 8 9 9 9 9 9 9 9 9 9 9 10 9 9 9 9 9 9 9 9 9 9 9 10 10 10 10 10 10 10 10 10 10 10 10 11 11 11
13 13 13 12 12 11 11 11 11 10 10 10 9 9 10 10 10 10 9 9 9 8 8 8 10 11 11 11 12 11 11 12 11 11 11 10 10 10 10 10 10 10 10 9 9 9 9 9 9 9 9 10 9 9 9 9 9 9 9 10 10 9 9 9 9 9 9 9 9 9 9 9 10 10 10 11 11 10 10 10 10 10 10 11 11 11 11
13 13 13 13 12 12 11 11 11 10 10 10 10 10 10 11 10 10 9 9 9 9 8 8 9 10 11 12 12 12 11 11 11 11 10 10 10 10 10 10 10 10 10 10 9 9 9 9 9 9 10 9 9 9 8 8 9 9 9 9 9 9 9 9 9 9 9 9 9 9 9 10 10 10 10 11 11 11 10 10 10 11 11 11 11 11 12
14 14 14 13 13 12 11 11 11 11 10 10 10 11 11 11 10 10 10 9 9 8 8 9 10 10 11 12 12 12 11 11 11 10 10 10 10 10 10 10 9 9 10 10 9 9 9 9 9 9 9 9 9 9 8 8 8 9 9 9 9 9 9 9 9 9 9 9 9 9 9 9 9 9 10 11 11 11 10 10 10 11 11 11 11 11 12
14 14 14 14 13 12 12 11 11 11 10 10 10 11 11 11 10 10 10 9 9 8 8 9 10 11 11 12 12 12 12 12 11 11 11 11 10 10 11 10 10 10 10 10 10 9 10 9 9 9 9 9 8 8 8 8 9 9 9 9 9 8 9 9 9 9 9 9 9 8 8 8 9 9 10 10 11 11 11 11 11 11 11 11 11 12 12
15 14 14 14 13 12 12 11 11 11 10 10 11 11 11 11 10 10 9 9 9 9 8 9 10 11 11 12 12 12 12 12 11 11 12 11 10 10 11 10 10 11 11 10 9 10 10 10 9 9 9 9 8 8 8 9 9 9 9 9 8 8 8 9 9 8 8 9 9 8 8 8 9 9 9 10 10 11 11 11 11 11 11 11 11 12 12
15 15 15 14 13 12 12 11 11 10 10 10 10 11 10 10 10 10 9 9 9 9 9 9 9 11 12 12 13 12 11 12 11 11 11 10 9 9 10 10 10 11 10 10 10 10 10 10 9 9 9 9 9 8 8 9 8 8 8 8 8 8 8 8 8 8 8 8 9 8 8 8 8 8 8 9 9 10 10 11 11 11 11 11 11 11 12
15 15 15 14 13 12 11 11 11 11 10 10 11 10 10 10 10 9 9 9 9 10 10 9 9 10 11 12 12 12 11 11 11 10 10 10 10 9 9 10 11 10 8 9 10 10 10 10 10 10 9 9 9 9 9 8 8 8 8 8 8 8 7 7 7 8 8 8 8 8 8 8 8 8 8 8 9 9 10 10 10 10 10 10 11 11 11
15 14 14 13 12 11 11 11 11 11 11 11 11 10 10 10 9 9 9 9 9 9 8 9 10 11 11 12 12 12 12 12 11 10 10 10 10 9 9 10 11 9 8 10 11 10 10 9 9 10 9 9 9 9 9 8 8 8 8 8 8 8 7 7 7 7 8 8 8 7 7 7 7 7 8 8 8 9 9 9 10 10 10 10 11 11 11
14 13 13 12 12 12 13 12 11 11 11 11 10 10 10 9 9 9 9 8 9 9 8 9 11 11 10 11 12 12 12 12 11 11 11 10 10 10 9 10 10 10 10 11 10 10 10 10 9 9 10 9 9 9 9 8 8 8 8 8 8 8 7 7 7 7 7 7 7 7 6 6 7 7 7 7 8 8 8 9 9 10 10 10 10 11 11
13 12 11 11 12 13 13 12 10 10 11 10 10 11 10 9 10 12 10 9 10 10 8 9 11 11 11 12 13 12 12 12 12 12 11 11 11 11 11 10 10 11 11 11 10 9 10 10 10 9 10 10 9 9 9 8 8 9 8 8 8 8 7 7 7 7 7 7 7 6 6 6 6 6 7 7 7 8 8 8 9 9 9 10 10 11 11
13 12 11 11 12 12 11 11 10 10 10 10 10 11 11 11 12 13 11 11 12 12 10 11 11 10 10 12 13 12 12 12 12 12 12 11 11 11 11 11 11 11 11 12 11 10 10 11 10 9 10 10 9 10 9 9 9 9 9 8 7 7 7 7 7 7 7 7 7 7 6 7 6 6 6 7 7 7 7 8 8 9 9 9 10 10 11
13 12 12 12 12 11 10 10 10 10 10 11 11 12 13 13 12 12 11 13 15 14 11 11 12 12 11 11 12 12 12 11 11 11 12 12 11 11 11 11 11 11 12 12 11 10 11 11 10 9 10 10 10 10 10 9 9 9 9 8 8 8 8 7 7 7 7 7 7 7 7 7 6 6 6 7 7 7 7 7 8 8 8 8 9 10 10
13 12 12 12 11 10 10 10 10 10 11 13 13 14 14 13 13 13 13 14 14 14 13 12 13 13 13 12 12 12 12 12 11 11 12 12 11 11 11 11 11 11 12 12 11 11 11 10 9 10 10 10 10 10 10 9 9 9 9 8 8 8 8 7 7 7 7 7 7 7 7 6 6 6 6 6 7 7 7 7 7 7 7 8 8 9 9
12 11 11 11 10 10 11 11 10 11 14 15 15 15 15 14 14 14 14 14 14 14 14 13 13 13 13 12 12 12 12 12 12 12 12 12 11 11 11 11 12 12 12 11 11 11 11 10 9 9 10 10 10 10 10 9 9 9 9 8 8 8 8 7 7 7 7 7 7 7 7 6 6 6 6 6 6 6 7 7 7 7 7 7 7 8 8
12 10 10 12 12 12 13 14 13 13 15 16 15 14 15 15 14 14 14 15 15 15 15 14 13 13 13 13 13 12 12 12 12 12 12 12 12 12 12 12 12 12 12 12 11 11 10 10 10 10 9 10 10 10 9 9 9 9 9 9 8 8 8 8 7 7 7 7 7 7 7 7 6 6 6 6 6 6 6 6 6 7 7 7 7 7 7
13 13 13 14 14 14 15 15 15 14 15 16 15 15 15 15 15 15 15 15 15 15 15 14 13 12 13 13 13 13 13 12 12 12 12 12 12 12 13 13 13 12 11 11 11 10 10 10 10 10 10 10 10 9 9 9 9 8 8 9 9 9 8 8 8 7 7 7 7 7 7 7 6 6 6 6 6 6 6 6 6 6 6 7 7 7 7
14 15 15 16 17 15 15 16 16 16 16 16 16 16 16 15 15 16 15 15 15 16 15 14 12 13 13 13 13 13 13 12 12 13 13 12 13 13 13 13 12 11 10 10 10 10 10 10 10 9 9 9 10 10 10 10 9 8 8 9 10 9 8 7 7 7 7 7 7 7 7 7 6 6 6 6 6 6 5 5 5 6 6 6 6 6 6
15 15 15 17 17 15 15 16 17 16 17 17 17 17 16 15 15 15 15 14 15 15 14 13 12 12 13 13 13 13 13 13 13 13 13 13 13 13 12 12 11 10 9 9 9 9 10 10 10 9 10 9 10 10 10 10 10 9 8 9 10 10 8 7 7 8 8 7 7 7 7 7 6 6 6 6 6 6 5 5 5 5 5 6 6 6 6
16 15 15 17 17 17 17 17 17 16 16 16 16 15 14 13 14 16 16 14 14 14 14 14 14 14 14 14 14 14 14 14 14 13 13 12 13 12 11 11 10 9 10 10 10 10 10 10 10 9 10 10 10 10 10 10 10 9 9 9 9 10 9 8 8 8 8 7 7 7 7 7 6 6 6 6 6 6 5 5 5 5 5 5 6 6 6
16 16 16 16 17 17 16 15 15 16 17 16 16 15 15 15 16 17 16 15 15 14 14 14 15 15 14 14 14 14 14 13 13 13 12 12 12 11 10 10 9 10 10 10 10 11 11 10 10 10 10 10 10 10 10 10 10 9 8 8 9 9 9 8 8 9 9 8 8 7 7 7 7 6 6 6 6 6 6 5 5 5 5 5 5 5 5
15 16 17 17 17 17 16 14 15 17 17 17 16 16 16 16 17 16 15 15 16 16 14 14 15 15 14 13 14 14 13 13 13 12 12 12 11 10 10 10 10 10 11 11 11 11 11 10 10 10 10 10 10 10 10 10 10 9 7 7 8 9 10 9 9 9 9 9 8 8 8 7 7 7 6 6 6 6 6 6 5 5 5 5 5 5 5
15 16 17 17 17 17 17 16 16 17 17 17 18 17 16 16 17 16 14 14 16 17 16 14 14 14 14 14 14 13 13 13 12 12 11 11 11 10 10 11 11 11 11 12 12 11 11 10 10 10 10 10 10 10 10 9 9 8 7 8 9 10 10 9 9 9 9 9 8 8 8 8 7 7 7 7 7 6 6 6 6 5 5 5 5 5 5
17 17 17 17 16 16 16 16 17 17 16 17 17 16 16 17 18 15 13 14 17 17 15 14 13 14 14 14 13 13 13 13 12 11 11 11 11 11 11 11 11 11 11 12 12 11 11 11 11 10 10 10 10 10 8 8 8 8 8 8 9 10 10 9 9 9 9 8 8 8 8 8 8 8 7 7 7 6 6 6 6 6 6 6 5 5 5
Height
840 838 836 834 832 830 827 824 821 818 812 808 805 804 805 805 802 795 789 785 779 780 795 805 805 806 805 803 801 797 794 794 793 791 790 789 788 788 789 790 790 791 792 792 791 792 792 791 790 791 791 789 787 786 785 786 786 787 788 784 777 775 777 779 775 765 752 738 732 734 735 737 745 748 745 745 743 740 743 740 726 720 721 719 729 734 705
839 837 836 834 832 830 828 825 823 820 817 814 811 809 810 812 809 801 794 787 781 789 806 812 812 812 808 804 802 798 796 797 796 797 797 795 794 794 793 792 791 792 793 792 792 792 793 792 789 790 792 790 786 784 785 786 787 787 787 784 781 780 780 779 774 765 752 738 734 738 740 745 755 756 753 750 747 747 744 731 722 720 714 711 725 726 698
839 837 835 834 832 830 828 826 823 822 820 817 815 813 812 812 809 804 801 793 790 801 814 816 816 817 814 810 807 803 801 799 799 800 799 798 797 796 795 793 794 795 795 793 792 792 793 793 791 791 792 789 785 784 784 784 786 786 784 781 781 784 784 782 777 771 761 749 749 757 762 763 761 756 753 752 751 751 745 735 734 729 712 704 710 707 690
838 837 835 833 832 830 828 826 824 822 821 818 816 815 814 811 809 809 807 802 802 809 814 815 817 818 818 814 809 809 808 803 800 800 801 801 798 797 797 795 796 799 799 800 799 795 792 792 792 792 792 790 785 783 783 784 784 783 782 780 781 782 782 780 778 773 765 760 763 768 771 770 766 758 753 752 752 752 750 751 747 731 715 708 700 691 686
838 836 835 833 831 830 828 826 825 822 821 819 817 816 815 815 816 818 817 812 811 814 814 817 819 818 818 815 810 812 812 808 804 802 802 803 801 799 798 798 802 805 806 807 805 798 794 793 793 792 791 789 785 782 783 784 782 781 782 782 782 784 782 777 776 774 769 767 767 767 767 769 767 762 756 751 750 750 752 752 742 729 724 714 693 685 687
838 836 834 832 831 829 828 826 825 823 821 819 817 817 817 818 820 821 821 820 820 820 818 819 821 819 817 813 811 813 813 811 811 808 804 804 803 803 803 803 806 809 810 811 808 801 798 797 794 791 790 789 787 785 784 783 781 782 785 784 783 787 785 776 773 773 769 766 765 764 765 765 763 762 758 752 749 748 748 744 735 732 733 716 694 688 683
837 835 834 832 830 829 827 826 824 823 822 820 818 819 819 820 822 821 820 822 823 822 820 821 822 819 815 813 813 815 814 812 814 812 809 808 806 807 809 808 808 810 809 810 810 805 801 800 795 792 791 790 790 789 787 785 783 784 787 786 784 787 785 776 774 774 769 765 764 762 763 763 760 758 754 748 744 739 734 730 725 725 726 716 704 697 683
836 834 833 831 829 828 826 826 824 823 822 821 820 821 821 822 823 822 822 822 821 820 820 821 822 819 816 815 815 814 813 813 814 813 813 814 810 808 810 809 808 809 808 809 809 804 800 799 796 794 794 793 792 791 788 785 786 787 789 787 785 787 783 772 771 774 768 762 760 758 759 760 758 753 747 741 737 731 724 722 719 718 717 711 708 703 688
835 833 832 830 829 828 826 825 824 823 822 822 821 821 821 822 822 822 824 823 820 819 820 820 822 820 817 817 815 813 812 813 815 814 811 812 812 809 809 809 808 808 807 807 805 800 797 797 794 792 793 793 790 788 784 783 786 790 791 789 786 788 785 774 773 775 767 758 758 757 757 758 756 752 745 738 735 732 726 721 720 720 717 707 700 698 691
834 832 831 829 828 827 826 825 824 823 823 822 822 822 821 822 822 821 824 823 820 819 820 821 821 819 816 815 814 814 813 812 815 816 810 808 809 808 807 809 809 809 807 803 798 795 794 793 790 787 787 786 783 782 780 778 783 787 789 790 788 787 787 781 776 774 766 758 759 761 759 755 749 745 741 737 734 734 729 724 721 721 719 713 704 698 694
833 831 830 829 827 826 825 824 824 823 823 822 822 822 822 823 822 821 823 824 821 821 822 821 820 817 814 814 814 814 813 812 814 817 813 808 806 805 806 807 808 808 804 796 792 791 789 786 783 781 780 779 777 776 774 774 776 779 783 788 788 786 787 784 778 774 767 760 761 763 759 749 738 733 735 734 732 734 735 731 725 721 719 716 709 701 695
831 830 829 828 826 825 824 824 823 822 822 822 822 822 821 822 822 821 823 824 822 821 822 820 818 816 814 815 815 814 813 813 812 813 814 810 806 804 803 804 806 803 796 790 788 787 784 779 776 774 773 773 771 769 770 770 770 771 774 780 784 785 786 784 779 775 769 763 763 762 754 742 732 728 729 729 728 731 734 729 722 722 721 717 713 707 698
830 829 828 827 825 824 823 823 822 821 822 821 821 821 821 821 821 821 822 824 822 821 821 818 815 815 815 814 814 812 811 811 810 810 811 809 806 804 802 801 802 796 790 788 787 786 784 780 776 772 768 766 766 764 763 764 765 767 769 772 777 782 785 783 777 773 770 768 766 757 743 734 730 728 728 729 729 732 734 729 721 722 725 721 718 711 700
829 828 827 826 824 823 822 822 821 821 820 820 820 820 820 821 821 821 821 823 821 819 819 818 815 814 814 813 812 812 811 810 810 809 808 807 806 804 800 798 796 792 789 789 787 786 786 784 781 775 769 766 765 761 757 755 756 760 766 769 771 777 783 783 777 771 768 769 766 755 742 735 734 734 734 737 737 737 740 739 729 723 725 725 721 714 705
828 827 826 825 823 822 822 821 820 819 819 819 819 819 819 819 820 820 820 822 822 819 818 817 815 813 814 813 812 813 813 811 811 809 807 806 804 802 798 795 792 789 788 789 788 787 788 788 787 781 773 769 764 760 757 754 750 752 760 766 770 774 779 780 776 769 766 768 768 757 744 737 738 740 739 739 737 733 735 740 733 725 725 725 722 717 710
827 826 824 824 822 821 820 819 819 818 818 818 817 817 818 818 818 819 819 820 822 819 816 814 813 813 814 813 812 813 813 813 812 810 807 806 804 800 796 793 791 789 788 789 789 789 789 790 789 784 776 769 764 760 757 754 752 754 759 764 771 776 779 779 778 774 772 773 770 758 743 737 741 742 738 735 733 730 731 735 733 728 727 726 724 720 713
826 825 823 822 821 820 820 818 818 817 817 817 816 816 817 817 817 818 818 820 821 818 813 811 812 814 815 813 812 812 812 811 811 811 810 808 805 801 796 792 790 789 789 789 789 790 791 790 788 784 776 770 767 763 755 751 754 760 764 769 774 778 779 779 778 776 774 773 768 757 745 741 742 739 734 731 728 727 730 733 733 732 732 730 727 723 717
825 824 823 822 821 819 819 818 817 816 816 816 816 815 815 815 816 817 817 819 820 817 812 810 812 813 813 812 812 810 809 809 810 811 811 808 806 804 799 795 794 791 789 790 792 793 793 789 786 784 776 768 767 765 758 753 755 759 764 770 773 773 773 773 773 772 770 769 765 756 746 742 739 737 733 725 720 725 733 737 738 738 736 733 730 726 721
824 823 822 821 820 819 818 817 816 816 815 815 815 815 815 815 815 816 816 818 819 817 811 809 811 811 810 810 810 810 809 809 810 811 812 809 805 802 799 798 797 795 792 793 794 794 792 786 784 785 778 769 768 769 765 762 762 762 763 765 766 766 765 766 768 767 764 762 759 752 745 742 740 736 730 721 723 736 743 741 741 741 738 736 733 728 723
823 822 821 820 819 818 817 816 816 815 815 815 815 815 815 814 814 815 815 816 818 816 812 809 810 810 808 809 810 810 810 810 810 811 813 810 804 802 802 801 800 798 797 796 795 794 793 789 786 786 782 776 773 772 770 768 768 769 766 763 764 763 761 761 762 759 754 753 751 749 748 746 741 736 732 733 743 754 751 743 741 742 740 738 735 730 726
822 821 820 819 818 817 816 815 815 815 814 814 815 814 814 814 814 814 815 815 817 816 812 809 808 808 807 807 807 807 808 808 807 808 810 808 805 805 807 806 803 802 801 801 799 797 795 792 790 788 785 780 777 775 773 770 769 768 766 764 765 765 764 764 762 757 754 754 752 752 754 752 745 742 744 749 755 757 753 748 746 744 742 740 736 731 727
821 820 819 819 817 817 816 815 814 814 813 814 814 814 815 815 814 815 815 815 816 815 811 808 807 805 804 803 802 802 803 803 803 804 806 807 805 805 806 804 803 802 801 802 802 799 796 794 792 789 786 784 780 778 775 772 770 768 765 763 765 766 766 765 764 760 759 758 754 753 755 754 750 748 751 753 753 752 754 754 752 748 745 742 737 732 728
820 819 818 818 817 816 815 814 814 813 813 813 813 813 815 815 815 815 815 815 815 813 809 807 806 803 800 799 799 799 799 799 800 800 803 806 806 804 803 802 801 800 801 801 802 800 798 796 793 789 788 786 784 780 776 773 773 773 770 767 767 765 763 763 764 763 759 754 752 753 755 754 752 751 752 753 752 752 754 755 754 751 747 743 739 735 730
819 818 817 817 816 815 814 813 813 813 813 813 813 813 814 815 815 815 815 815 815 813 810 808 805 802 800 798 797 797 796 796 797 797 798 802 804 803 801 800 799 799 800 800 799 798 797 795 792 789 789 786 784 783 780 777 776 776 773 772 770 765 762 764 768 767 761 753 752 756 757 754 751 751 752 752 752 753 754 755 754 751 747 742 740 737 732
818 817 817 816 815 814 814 813 812 812 812 812 812 812 813 814 815 815 815 815 816 816 815 811 805 801 800 798 796 795 795 793 793 795 796 797 799 799 798 797 797 798 799 798 797 797 797 794 791 791 790 787 784 785 784 781 779 776 775 777 776 769 765 768 771 769 763 756 754 757 756 749 747 749 752 753 753 753 753 752 750 748 745 742 739 736 732
817 816 816 815 814 814 813 812 812 812 812 812 812 812 813 813 814 814 815 815 815 817 818 814 806 800 800 799 796 795 794 793 792 792 793 793 794 795 796 796 797 797 797 796 796 796 795 794 792 793 793 789 787 788 787 783 780 778 779 781 778 773 771 773 773 769 764 759 758 758 755 749 746 749 751 752 753 753 751 748 747 745 744 741 738 735 732
816 816 815 815 814 814 813 813 813 812 812 812 812 812 812 813 813 813 814 814 815 816 817 816 809 802 800 799 797 796 794 793 792 791 792 793 794 795 796 797 797 797 796 796 796 795 794 794 794 794 793 790 788 788 786 783 782 782 783 781 777 776 777 776 773 771 769 767 766 765 763 758 753 751 750 751 752 752 750 747 745 743 742 740 738 736 733
815 815 815 814 814 814 814 814 813 813 813 813 813 813 813 813 813 813 813 814 814 815 816 815 810 804 800 798 797 796 794 793 792 792 792 793 794 795 796 797 797 797 797 798 798 799 799 798 797 796 793 792 792 789 784 782 783 785 786 782 780 780 781 778 776 775 773 770 768 767 766 762 756 750 748 749 750 750 748 746 743 742 740 740 739 737 734
815 815 814 814 814 814 814 814 814 813 813 813 813 813 813 812 812 813 813 814 814 814 815 814 809 804 801 799 797 796 795 794 793 793 793 793 794 795 796 797 797 797 797 798 800 801 801 800 799 797 795 794 794 791 787 787 789 790 789 785 782 781 780 779 778 777 773 769 767 766 764 760 754 749 746 745 745 746 745 741 739 738 738 738 738 736 734
814 814 814 813 814 813 813 813 813 813 813 813 813 813 813 812 812 812 813 813 813 814 815 814 808 803 801 800 798 797 797 796 795 795 795 795 796 796 796 797 797 797 797 798 799 800 800 799 797 796 794 792 793 794 793 793 793 792 789 785 783 782 780 778 777 775 772 769 766 763 760 755 750 746 742 740 739 740 739 736 735 736 736 735 735 734 731
814 814 813 813 813 813 813 813 813 813 813 813 812 813 814 813 812 812 812 813 813 813 815 815 810 805 802 799 798 798 798 797 797 797 797 797 797 797 797 797 797 797 798 799 799 799 799 800 799 797 795 793 794 796 798 797 796 793 789 786 785 783 781 778 776 774 771 768 764 760 756 752 748 745 741 737 735 735 735 733 733 733 733 732 731 731 729
813 812 812 812 812 812 812 813 812 812 812 812 812 812 812 812 812 811 811 812 813 813 815 814 810 807 804 800 798 798 798 798 798 798 798 798 798 797 797 797 798 798 798 799 800 800 799 800 800 798 797 796 797 799 800 800 798 796 792 788 786 784 782 779 776 773 770 767 763 760 756 752 749 746 742 737 733 732 733 732 731 731 731 731 730 729 727
812 811 811 810 811 811 812 812 812 812 811 811 811 811 810 810 811 811 811 812 812 813 814 814 812 809 806 801 798 798 798 797 798 799 798 797 798 798 797 797 798 797 797 798 800 800 799 799 800 799 798 798 800 802 802 801 799 796 793 790 788 786 783 780 776 773 770 766 764 763 761 756 752 747 743 738 734 731 731 730 730 729 729 729 729 728 726
811 810 809 809 810 810 810 811 811 811 811 810 810 810 810 810 810 810 811 812 812 812 813 814 813 810 805 801 799 799 798 797 799 800 799 798 798 798 799 799 799 798 798 799 800 800 799 800 801 800 799 800 802 804 804 802 799 796 793 791 789 787 784 780 777 774 771 767 764 763 761 757 752 747 743 740 736 732 730 728 728 728 728 727 726 725 724
810 809 808 808 809 809 809 810 810 810 810 810 809 809 809 809 810 810 811 811 812 813 813 813 813 811 806 803 801 799 797 798 799 800 800 800 799 799 801 801 801 800 799 799 801 802 801 800 801 802 801 801 803 804 804 802 799 796 794 792 790 787 785 782 779 776 772 769 766 763 760 757 754 750 746 742 738 734 730 728 726 726 726 726 725 723 722
809 808 807 807 808 808 809 809 809 809 809 808 808 808 809 809 810 810 810 810 811 811 812 813 814 811 806 803 801 798 797 798 799 800 801 800 800 801 802 802 802 804 805 803 803 803 802 800 801 803 804 804 805 804 803 801 800 799 797 794 791 789 787 785 782 778 774 771 769 766 763 760 757 754 749 744 740 736 732 729 726 725 725 724 724 722 721
808 807 807 807 808 808 809 808 808 808 808 808 808 808 808 809 810 810 810 810 810 810 811 812 810 805 803 803 800 797 796 798 799 799 799 799 800 802 803 802 801 804 806 804 802 802 802 801 803 805 806 806 805 803 801 801 801 800 798 795 792 789 788 786 784 781 777 774 772 770 767 763 760 757 752 747 742 738 734 731 728 725 723 722 722 721 720
808 807 807 807 808 808 808 807 807 807 807 808 808 808 808 810 810 809 810 811 809 809 811 811 806 802 802 802 798 794 794 797 798 798 798 799 799 800 802 802 800 801 803 803 801 802 802 803 804 805 804 804 803 801 799 800 799 797 796 794 792 790 789 787 785 782 780 777 775 772 769 766 763 759 755 751 745 741 737 733 730 726 723 721 720 719 718
808 807 807 807 808 807 807 806 807 807 808 808 808 808 808 809 808 806 808 810 809 808 810 808 803 801 801 798 795 793 792 794 797 797 797 798 797 797 800 801 799 799 801 802 801 801 801 802 805 805 803 802 801 800 798 797 796 794 793 792 792 791 790 788 786 784 783 781 779 776 772 769 766 762 759 754 749 743 738 734 731 727 724 721 719 718 717
807 807 807 807 807 807 807 807 807 808 808 808 808 808 808 808 806 805 806 807 804 803 805 802 799 798 798 796 795 793 791 792 794 795 795 795 795 796 798 799 798 799 800 800 799 800 801 802 805 806 804 802 801 799 797 796 795 793 791 791 791 790 789 787 786 785 784 782 780 777 774 771 768 765 761 756 751 746 740 736 732 729 726 722 719 717 716
806 807 807 807 807 807 807 808 808 808 808 808 807 807 806 806 805 806 807 804 800 798 798 797 796 795 796 796 795 793 791 791 792 793 793 794 794 795 797 797 798 799 799 798 799 800 801 802 805 806 804 802 801 799 797 796 795 793 791 790 790 789 788 787 786 784 783 781 779 776 774 772 769 766 762 757 753 748 743 738 734 731 727 723 720 717 715
806 806 806 806 807 807 808 808 809 808 808 807 806 805 805 805 804 804 804 802 798 796 794 793 793 791 790 791 792 791 790 790 791 792 793 793 793 794 796 797 798 797 795 794 797 799 800 803 806 805 802 801 800 799 797 796 795 793 792 791 790 789 788 787 785 784 782 780 778 776 775 773 770 767 763 758 754 750 745 741 737 733 729 725 721 718 715
805 806 806 807 807 808 807 808 808 808 806 805 806 806 806 804 803 803 802 799 797 795 793 790 790 789 788 788 790 790 789 790 791 792 793 793 793 794 796 796 795 792 791 793 797 799 801 804 807 805 802 800 799 798 797 796 794 793 792 791 789 789 788 787 786 784 782 781 779 777 775 773 770 767 763 759 754 751 748 744 740 736 732 727 723 720 716
804 806 806 806 807 807 806 806 807 807 806 806 808 808 807 806 805 804 802 798 794 793 791 790 790 791 789 788 788 789 789 790 791 791 792 793 793 793 793 793 790 789 790 793 797 799 802 804 804 802 801 800 798 797 797 795 794 793 792 790 789 788 788 787 786 785 784 782 781 779 776 774 771 767 763 759 756 753 750 747 743 739 735 730 726 723 719
804 805 806 806 806 806 806 806 807 807 806 805 805 805 805 804 803 801 799 795 792 791 789 789 791 792 790 788 788 788 789 790 791 791 791 791 792 791 790 789 788 790 794 798 800 801 803 803 802 800 800 799 798 797 796 795 794 793 791 790 788 787 787 787 786 785 784 783 781 779 777 774 771 768 764 760 758 756 753 751 748 744 739 734 731 728 726
802 803 804 804 805 805 806 807 807 806 803 801 800 799 799 799 798 796 794 792 790 788 787 788 789 789 788 787 787 788 788 789 789 789 789 790 790 789 788 788 791 797 802 804 805 804 803 801 800 800 799 798 796 795 794 793 793 792 791 789 787 786 786 786 785 783 782 781 779 777 775 773 770 767 764 761 758 756 755 753 751 748 744 740 738 736 733
802 802 803 804 804 805 805 804 802 799 797 795 794 794 794 795 795 793 791 790 789 787 786 787 788 787 786 786 786 787 788 788 787 787 788 789 790 788 789 793 800 805 806 806 807 805 801 799 799 798 797 796 795 794 792 792 791 790 789 789 787 785 784 784 783 781 780 779 777 775 773 771 768 766 764 762 760 758 757 755 753 750 747 745 743 741 737
800 802 803 803 803 802 800 798 796 795 793 793 793 793 795 795 794 790 788 788 787 786 785 785 784 784 785 785 785 786 787 787 787 789 790 790 790 792 795 801 806 806 804 803 803 800 797 797 797 797 795 795 794 792 791 791 790 789 788 788 786 785 784 783 782 781 779 778 776 775 773 771 769 768 766 765 763 762 760 758 756 753 750 748 746 744 742
798 800 801 801 800 798 797 798 797 795 792 791 793 793 793 793 790 787 785 785 785 784 784 784 783 783 785 787 787 787 789 789 790 792 793 793 795 799 803 806 807 805 801 799 798 796 794 795 795 794 794 793 792 791 791 790 789 788 787 786 785 784 783 783 782 780 779 778 777 776 774 773 772 771 770 769 767 766 765 763 759 756 754 752 751 749 747
798 798 798 798 798 798 798 799 798 795 791 791 791 790 790 789 788 785 784 784 783 783 783 784 783 784 787 789 789 790 791 791 791 793 794 795 799 802 803 804 803 801 798 795 794 793 792 792 793 793 793 792 791 790 790 789 788 787 786 785 784 783 783 782 782 781 779 778 778 777 776 775 775 774 773 772 771 770 769 766 763 761 759 758 756 754 752
798 797 795 794 795 795 794 795 795 793 791 789 788 787 787 787 785 783 782 783 782 782 784 786 787 787 788 789 791 792 792 792 794 797 798 797 798 801 801 798 797 796 794 792 791 791 792 792 792 792 792 791 791 790 789 788 787 787 786 784 783 783 783 782 782 781 780 779 778 777 777 776 776 775 775 774 772 771 770 768 766 765 763 761 760 758 757
797 795 793 792 792 792 793 792 792 791 789 787 785 785 785 784 782 781 781 782 781 782 785 789 790 789 789 789 791 792 792 793 796 799 798 796 796 797 797 794 793 793 792 790 790 790 791 791 790 791 791 791 790 789 788 788 787 787 786 785 784 783 783 783 782 782 781 780 779 778 778 777 776 776 775 774 773 771 770 769 768 767 766 764 763 761 760
Wind_Speed
22 22 22 24 25 26 27 26 25 29 31 31 29 16 3 3 2 7 28 32 12 6 6 3 3 3 2 3 2 3 4 4 5 6 7 5 3 4 3 2 2 1 1 1 0 1 0 2 1 1 2 2 3 2 3 3 3 2 2 3 4 4 2 2 4 4 7 13 11 4 4 3 2 2 3 4 4 3 3 5 4 4 4 4 4 8 8
22 22 22 23 24 24 25 24 23 25 26 27 24 10 1 3 3 5 23 30 15 7 4 2 2 4 4 3 4 4 3 5 5 5 5 5 3 2 2 2 2 2 2 2 0 1 0 1 1 1 1 2 3 4 3 1 1 2 3 3 3 3 1 0 2 3 3 5 2 1 3 4 2 2 4 4 6 8 7 4 2 3 6 8 7 9 7
22 22 22 23 23 23 23 22 21 22 23 23 19 7 2 3 1 3 13 24 17 6 2 1 1 3 4 3 4 6 4 4 5 4 3 4 3 1 2 3 2 2 4 3 2 1 1 1 1 1 0 2 3 4 4 2 1 3 6 6 4 2 2 1 1 2 3 4 3 2 2 5 4 5 7 7 7 9 6 2 1 4 6 7 7 8 6
21 22 22 22 22 21 21 20 20 21 22 22 17 7 2 2 2 2 6 10 8 3 1 2 1 1 3 3 3 5 5 3 4 3 3 5 5 2 2 3 3 4 5 4 4 3 2 2 1 1 2 3 3 3 5 3 2 4 7 7 3 2 2 3 4 4 4 3 2 1 3 6 7 10 13 11 8 6 3 1 2 3 3 4 7 8 8
21 21 22 21 21 20 18 18 19 19 19 21 15 5 1 2 1 2 3 3 4 3 3 4 3 2 2 1 2 5 5 4 4 3 2 4 6 3 2 3 3 3 5 4 3 3 2 1 2 3 4 3 3 3 4 4 4 4 4 4 3 2 3 4 7 8 7 7 7 6 6 8 9 12 16 15 13 9 5 6 6 3 2 5 5 5 10
21 21 21 20 19 19 17 16 18 18 18 19 12 3 1 2 1 0 0 1 2 2 3 5 5 5 3 0 2 5 6 5 5 3 3 4 4 3 2 3 3 2 3 2 3 3 3 3 3 3 3 2 3 4 2 3 3 2 1 3 2 2 3 3 6 8 8 9 9 7 7 9 9 11 14 15 14 12 10 11 11 7 5 6 5 5 12
20 20 20 19 18 18 16 15 17 17 16 15 9 2 1 2 1 0 0 0 1 1 3 4 4 5 4 2 3 4 6 6 4 2 4 4 3 2 1 3 4 5 4 2 2 3 2 4 3 2 2 3 2 3 3 3 1 2 0 2 0 1 4 4 6 8 9 9 9 9 9 9 9 11 14 14 13 14 13 13 13 12 11 9 12 14 15
20 19 19 18 17 17 16 14 15 15 14 11 6 2 1 1 1 1 1 1 2 2 2 3 3 4 3 2 2 3 5 6 5 2 3 3 2 1 2 6 6 6 6 2 4 5 5 6 6 3 4 4 2 2 3 2 1 1 0 1 1 2 4 4 4 5 6 8 8 8 7 7 9 12 13 11 10 11 10 9 9 9 10 10 14 16 13
19 18 18 17 17 17 16 14 13 14 12 8 3 1 1 1 1 1 1 2 2 1 1 1 2 2 2 2 3 4 5 6 6 4 3 4 3 2 4 8 6 6 6 5 7 8 7 8 9 8 8 7 5 4 4 3 3 2 2 2 1 2 3 5 2 2 4 4 4 4 6 7 9 10 9 7 6 8 8 4 4 4 5 6 8 9 7
18 17 17 17 16 15 14 12 11 12 10 6 2 1 1 1 2 1 1 1 2 1 1 1 1 1 2 4 5 5 5 5 6 5 2 3 5 5 5 6 5 5 7 8 8 8 7 9 11 10 10 11 9 9 9 8 6 5 4 2 2 3 2 4 2 2 3 2 0 4 6 5 5 5 2 4 4 7 9 6 8 9 5 4 5 5 5
18 17 17 16 14 13 12 11 10 10 9 7 4 3 3 3 3 1 0 0 0 0 0 1 1 1 3 5 5 4 6 6 5 4 2 2 5 6 5 6 5 4 6 7 7 8 10 12 12 11 11 13 13 13 13 13 11 8 5 3 3 4 4 4 3 2 2 2 4 5 4 3 3 5 5 6 3 5 9 7 9 13 8 4 5 6 8
18 17 16 14 14 12 11 10 9 8 8 7 6 6 6 5 4 2 1 0 1 1 1 2 2 4 5 6 6 6 7 7 5 5 4 5 7 5 4 4 4 4 6 7 9 10 10 10 10 10 11 13 14 14 15 15 13 10 8 6 5 4 5 5 3 2 2 3 4 2 5 2 2 5 8 9 3 5 11 7 7 15 15 12 11 11 11
17 16 15 14 13 12 10 10 9 9 8 7 7 8 8 6 4 1 1 1 1 1 2 4 4 6 6 6 6 7 7 7 6 5 5 6 6 5 3 2 3 5 7 10 11 9 7 7 7 7 8 7 8 11 14 16 14 12 10 9 7 5 5 4 3 2 1 2 0 3 3 1 1 2 8 9 4 6 11 7 8 16 17 15 14 14 14
16 15 15 13 11 10 10 10 10 9 8 8 9 9 9 7 4 1 1 1 2 2 2 3 3 4 5 5 5 6 6 6 6 4 4 3 4 6 4 3 7 9 8 8 7 4 2 3 4 5 4 3 3 5 8 11 13 14 13 10 8 6 5 4 3 3 1 1 2 3 3 2 1 2 5 6 4 6 8 5 4 12 14 14 15 15 16
15 14 13 12 11 11 12 11 10 8 7 7 8 8 8 7 6 3 1 1 2 1 2 2 2 3 4 5 4 4 4 4 4 4 3 2 3 5 5 7 11 11 6 3 2 2 1 2 3 4 4 3 3 3 2 4 8 13 14 11 8 7 6 4 3 2 1 0 2 3 2 3 2 1 4 5 6 8 6 4 1 8 14 15 15 15 16
15 13 12 13 13 13 12 10 10 9 8 6 6 6 6 5 5 5 3 1 1 2 2 3 3 3 3 4 4 3 3 2 3 4 4 2 3 5 6 8 10 8 4 1 1 1 1 1 3 4 4 4 5 3 3 2 5 8 11 12 11 10 8 5 3 1 0 0 1 3 3 3 1 4 8 8 8 7 3 4 1 8 14 16 16 16 17
15 14 14 15 14 12 11 10 9 9 8 6 5 5 5 4 3 5 4 2 1 2 1 2 2 2 2 3 3 2 2 2 2 2 3 3 4 6 7 7 6 4 3 3 2 1 1 2 3 3 4 5 4 4 4 1 6 7 9 11 11 10 7 5 3 3 3 3 3 3 2 1 3 7 11 11 8 3 2 4 1 8 13 14 15 16 17
15 14 14 13 11 10 10 9 9 8 7 5 3 3 4 2 2 5 3 1 1 3 2 2 3 2 2 2 2 2 2 2 2 1 3 3 3 4 5 5 4 3 3 3 2 2 2 2 2 3 4 3 3 4 4 3 3 5 7 8 6 5 4 4 4 4 5 5 3 2 2 2 6 10 13 12 6 1 3 2 3 8 11 13 14 15 15
15 14 13 11 10 10 9 9 8 8 6 5 3 1 1 1 2 4 4 1 1 2 2 1 2 3 3 2 2 2 2 3 2 2 3 3 3 5 4 2 2 2 3 3 2 2 3 3 2 2 3 4 3 4 4 4 3 2 5 5 3 3 3 3 3 4 4 4 3 2 2 1 7 12 12 8 4 2 2 3 4 7 10 12 13 14 14
15 13 11 10 10 9 9 8 7 7 6 5 3 1 0 0 2 5 5 2 1 2 4 3 4 6 5 2 2 2 2 1 2 1 2 2 3 4 4 2 2 3 3 3 3 2 3 4 4 2 3 4 4 4 4 2 3 4 2 1 1 1 2 2 1 3 2 2 2 1 1 3 10 12 8 6 6 4 6 5 5 7 10 11 12 12 13
14 12 10 10 9 8 8 8 7 6 5 4 2 1 1 1 0 2 5 3 1 1 3 3 4 8 10 9 10 9 6 5 5 3 2 3 2 2 2 2 2 2 1 2 3 2 2 3 3 2 3 3 3 4 6 3 3 6 5 2 3 4 2 0 1 2 1 1 1 2 1 5 9 7 5 6 5 4 8 8 7 8 9 10 10 10 13
13 12 10 9 8 8 8 7 6 5 3 2 1 1 1 1 2 2 3 4 4 5 8 10 13 17 18 18 17 16 15 15 14 10 4 2 2 1 2 3 2 1 0 1 1 2 2 2 3 3 3 3 3 4 5 3 2 5 6 3 3 5 5 2 1 2 2 2 1 2 2 5 6 6 5 5 6 7 8 8 8 8 8 8 9 11 13
12 12 10 8 8 8 7 6 5 3 2 2 1 1 1 1 1 2 2 3 4 7 11 14 15 15 14 12 11 11 12 15 18 17 11 5 2 2 3 2 2 2 1 1 1 2 2 2 2 3 2 3 4 4 3 3 3 4 5 4 2 5 7 3 2 4 5 3 1 3 5 7 5 4 5 5 6 7 7 7 7 8 9 8 8 11 12
13 12 10 8 8 8 7 5 4 3 3 3 2 2 2 2 2 2 1 1 1 3 5 5 5 4 6 10 13 12 10 11 13 15 15 12 4 2 2 3 2 0 1 1 3 2 2 2 2 2 2 3 4 4 3 3 4 5 5 4 2 5 7 5 4 7 6 1 3 7 10 10 7 1 6 5 5 5 6 6 5 7 9 9 9 11 12
13 11 9 8 7 7 6 5 4 1 2 4 5 5 4 4 4 3 2 1 1 1 2 3 3 3 7 12 12 10 9 9 9 11 15 18 14 7 2 1 1 0 2 2 1 1 2 2 1 2 2 2 3 4 4 3 4 6 6 5 5 6 7 6 6 8 6 3 5 11 12 9 3 4 5 4 5 6 8 8 7 8 9 10 10 10 11
12 10 8 6 6 6 6 6 4 3 3 5 6 6 4 3 4 5 3 1 1 0 2 3 4 6 11 12 10 10 12 10 7 10 15 19 21 17 8 1 2 2 2 2 1 2 2 2 1 2 3 2 3 4 4 4 4 5 6 7 6 7 6 7 7 7 5 4 9 14 12 5 4 3 3 4 6 8 9 11 11 9 9 11 11 10 10
10 8 5 4 5 6 7 7 6 5 4 3 4 5 5 4 5 5 3 2 2 1 2 2 4 9 12 10 10 13 13 9 5 7 14 16 17 15 8 3 3 3 3 2 1 1 1 1 1 2 3 3 3 3 3 3 3 2 5 7 7 6 6 7 7 5 5 6 10 12 9 5 4 8 10 8 7 8 9 11 12 10 9 10 11 11 10
8 5 2 2 3 4 5 5 5 5 4 3 2 2 3 4 5 5 5 4 2 1 1 2 4 9 10 8 9 13 11 8 7 3 5 9 10 10 6 2 2 2 3 3 2 2 2 2 3 3 3 2 3 3 3 3 2 3 6 9 8 7 9 10 8 6 7 9 11 10 8 8 10 12 12 10 8 7 9 12 12 11 10 10 10 11 10
6 4 1 1 2 2 2 3 4 4 3 3 1 1 2 3 4 5 5 5 4 2 1 2 4 5 5 7 8 10 10 10 11 12 11 8 6 5 3 1 1 1 1 1 1 2 2 2 2 2 2 2 3 3 3 3 3 4 8 11 10 8 10 11 10 9 9 10 12 11 9 10 12 13 14 12 8 7 10 13 12 11 10 9 9 11 10
5 4 3 2 2 2 1 1 2 2 2 1 1 2 2 1 3 3 4 5 5 2 1 1 1 2 4 5 4 4 8 11 13 14 14 12 9 6 4 2 1 1 1 1 1 1 1 2 2 2 2 4 3 2 3 4 3 3 8 11 11 11 11 10 9 9 9 10 12 12 11 11 12 12 12 11 9 8 10 12 11 11 10 10 9 10 10
5 6 5 4 4 4 3 1 0 1 2 2 0 2 2 1 1 2 3 5 5 2 1 0 1 3 4 2 1 1 3 6 8 8 7 6 5 4 3 1 1 2 2 1 1 1 1 2 2 2 3 5 4 2 3 4 3 4 9 12 10 11 12 10 9 9 9 10 12 11 10 9 9 8 8 9 8 8 8 10 11 12 12 12 10 9 10
6 7 7 7 6 5 4 4 3 2 2 3 1 1 2 2 2 3 4 5 5 3 1 0 1 2 2 2 2 1 2 2 2 3 2 2 2 2 2 2 1 1 0 1 1 1 1 1 2 2 2 4 4 2 2 3 4 6 10 11 9 9 10 10 11 12 12 12 12 10 9 10 11 11 11 10 7 7 7 8 11 12 12 11 11 11 12
7 8 9 9 8 7 6 6 5 4 4 5 5 5 5 3 3 5 6 5 4 3 1 1 1 1 2 2 2 1 1 1 1 2 2 2 1 2 2 2 2 1 2 1 1 1 1 0 1 2 1 1 2 1 1 3 5 7 9 9 8 10 11 11 11 12 12 12 12 10 10 12 14 13 12 11 9 8 8 8 10 10 9 7 7 8 8
9 9 9 9 9 8 7 7 6 6 6 6 6 5 3 4 5 5 5 5 2 1 0 2 1 1 2 2 2 1 1 1 1 1 1 2 1 2 1 3 3 3 2 1 1 1 1 1 1 2 1 1 1 1 1 4 7 7 7 8 8 9 9 8 9 11 12 12 13 12 11 13 13 11 11 12 12 11 9 9 9 8 7 6 5 6 6
10 9 7 8 8 8 8 7 7 6 5 6 5 3 3 5 5 5 4 4 1 1 1 1 1 1 1 2 2 2 1 1 0 1 1 1 2 2 1 1 2 1 1 1 2 2 2 2 1 2 2 2 1 1 2 5 8 8 7 8 9 9 9 9 10 11 12 12 13 13 14 14 13 13 13 12 12 12 10 8 7 7 7 6 5 5 5
9 8 5 4 6 6 6 5 5 4 3 3 3 2 4 5 5 4 4 4 3 1 1 0 0 2 2 1 2 2 2 0 1 0 1 0 2 2 2 2 1 1 1 2 2 1 2 2 1 2 3 2 2 3 4 5 7 7 7 8 9 8 9 11 12 13 13 13 14 15 15 15 14 13 12 12 12 12 12 10 8 8 8 7 5 5 5
8 5 2 2 3 2 3 3 3 3 2 1 1 4 5 4 4 3 2 3 4 3 2 1 1 3 3 2 2 1 1 1 1 1 1 1 1 0 1 2 1 1 1 2 0 1 1 1 2 1 2 1 2 3 4 4 5 6 6 7 7 7 7 9 11 12 13 13 14 14 14 14 13 12 12 13 14 13 12 12 10 8 8 7 6 5 5
5 2 0 2 2 1 1 2 1 1 1 2 4 3 2 2 1 0 1 0 2 2 2 1 2 3 2 1 2 2 2 1 1 1 0 1 1 0 1 1 1 1 1 1 2 1 1 2 2 1 1 2 2 3 4 4 4 4 4 4 5 5 6 7 9 12 13 12 13 14 14 13 14 13 12 13 14 13 11 10 10 9 8 7 7 6 6
3 1 1 1 1 1 1 1 3 3 2 2 1 1 0 1 2 1 1 0 0 1 1 1 3 3 3 2 3 2 2 2 2 1 1 1 0 0 0 0 1 1 1 1 2 1 1 2 1 1 1 2 3 4 5 4 4 4 4 4 4 5 5 5 7 9 10 10 11 13 12 12 13 13 11 11 12 12 11 10 11 11 10 8 7 7 7
2 1 1 1 1 2 3 5 5 3 1 1 1 1 0 1 0 1 1 1 1 1 1 2 2 2 4 3 3 3 2 2 1 1 1 1 1 1 1 0 1 1 2 1 2 1 2 0 0 1 2 2 3 4 5 4 5 5 4 3 5 6 7 6 7 9 9 8 9 11 12 13 13 12 12 12 11 11 12 11 11 12 13 12 11 9 7
1 1 1 1 2 4 5 5 3 0 1 1 1 1 1 1 1 0 1 1 2 3 2 1 1 2 2 3 3 2 2 2 2 2 1 0 1 1 2 1 0 2 1 3 2 2 3 1 0 1 2 3 4 4 4 4 5 5 5 4 5 6 7 7 9 11 10 8 7 9 12 14 14 13 13 14 12 10 11 12 13 15 17 15 14 13 11
1 2 2 3 4 5 4 2 1 1 1 1 1 1 1 0 1 1 1 0 2 2 1 1 2 3 3 3 3 2 2 1 1 2 1 1 1 1 2 0 1 2 1 3 0 3 2 0 1 2 2 3 4 4 4 4 5 5 5 5 5 5 6 6 7 10 11 9 8 9 12 14 14 14 15 16 15 14 14 15 16 18 20 19 17 18 19
3 5 4 3 3 3 1 1 1 1 1 2 2 2 2 2 2 1 2 2 1 1 2 2 1 1 1 2 1 1 0 0 1 1 1 1 1 1 1 1 1 1 1 0 3 3 1 0 1 2 2 3 4 4 4 5 5 4 5 6 6 5 6 6 6 9 11 11 10 10 12 13 15 16 17 18 18 18 17 18 19 20 20 20 19 20 23
5 5 3 1 1 1 0 1 1 0 1 1 0 0 2 3 2 1 2 2 2 2 2 2 1 2 2 2 1 1 0 0 1 1 0 1 1 1 1 1 1 0 1 2 2 1 1 1 1 2 3 2 3 4 4 5 5 5 5 6 6 5 5 6 6 7 8 9 10 10 10 11 14 16 18 20 20 18 17 19 23 24 24 21 20 22 26
4 1 2 2 2 1 1 1 1 1 0 1 2 3 2 3 3 3 3 3 2 2 3 2 2 2 3 2 0 1 0 0 1 0 1 0 1 1 1 2 1 1 2 2 1 1 1 1 1 2 3 3 4 5 4 4 4 5 4 5 5 4 4 4 4 4 5 6 8 8 9 10 11 14 16 19 20 20 19 19 21 24 25 24 23 24 27
1 0 2 2 1 1 0 1 1 0 1 2 3 4 4 4 5 4 3 3 2 3 5 3 2 3 2 1 0 0 0 1 1 0 0 2 1 1 0 1 2 2 2 2 2 1 2 2 2 2 3 3 4 5 4 3 4 4 4 4 4 4 3 4 4 4 6 7 8 8 9 10 11 12 15 18 21 22 23 23 23 24 24 24 23 24 27
0 0 3 2 1 1 0 1 2 2 3 3 4 4 4 4 3 4 3 3 3 4 4 2 1 2 1 0 1 0 1 1 1 1 1 2 0 1 1 2 1 0 1 0 2 3 3 3 3 3 3 3 4 4 4 4 4 5 5 4 4 4 3 3 3 5 7 9 9 9 10 12 14 14 15 17 20 22 24 25 25 25 24 23 24 26 29
1 0 1 1 1 1 2 3 3 2 3 4 3 3 2 2 2 4 4 3 3 2 2 1 1 1 1 1 2 0 1 1 1 1 1 1 1 1 2 2 1 1 1 2 3 3 3 3 3 3 3 4 3 4 4 4 4 5 5 4 4 5 4 4 4 5 6 8 8 8 10 12 14 15 14 15 18 21 23 24 24 26 26 24 25 28 29
1 1 1 1 1 2 3 2 0 2 4 3 2 2 2 2 4 6 4 2 1 2 2 1 1 1 1 1 2 2 1 1 1 1 2 2 1 0 0 1 1 2 2 3 4 3 3 3 3 3 4 4 4 4 4 4 4 5 5 5 5 5 5 5 5 6 6 6 6 7 9 10 12 13 13 13 14 17 21 22 23 25 26 25 24 24 26
1 1 1 1 1 2 2 1 1 3 5 4 3 3 2 2 4 5 3 1 0 2 2 2 2 1 1 1 3 2 1 1 1 2 1 1 0 1 1 1 2 3 3 3 3 3 3 3 3 3 4 4 4 4 4 4 4 4 6 6 5 4 5 7 8 8 7 5 4 4 7 10 10 10 11 11 12 15 18 21 22 23 24 25 25 24 24
1 0 1 2 3 3 2 1 2 4 5 4 4 4 3 2 4 5 3 2 2 3 3 1 1 2 3 2 1 1 1 0 2 2 1 2 1 2 1 2 4 4 3 3 3 3 3 3 2 3 4 5 4 4 4 5 5 6 7 7 4 5 8 10 10 10 10 8 6 4 5 8 8 8 9 11 13 13 14 17 20 22 21 22 24 25 25
0 1 2 2 3 4 3 2 2 4 5 5 5 4 3 3 4 4 3 3 3 2 0 1 1 3 2 0 1 0 1 1 1 1 2 2 1 2 3 4 4 3 3 3 3 3 3 3 3 3 3 4 4 5 5 6 6 7 9 7 4 7 9 9 9 11 11 10 9 7 4 4 6 8 10 11 12 10 8 11 16 20 20 20 21 23 24
Wind_Direction
338 342 346 346 349 351 351 356 359 356 355 355 354 353 10 24 298 320 355 1 12 70 58 12 21 42 321 317 290 281 331 359 354 5 15 15 14 20 32 33 32 63 1 315 343 41 220 196 161 179 223 228 213 178 69 18 327 317 289 293 310 302 265 263 280 279 273 271 271 267 263 255 190 241 323 348 327 335 294 259 224 201 206 171 210 255 254
339 344 346 344 347 350 351 355 357 357 358 354 351 357 76 349 283 299 1 16 43 84 50 13 13 358 336 337 345 335 354 16 13 16 17 6 0 11 0 0 36 33 337 324 257 306 136 150 166 185 228 251 206 160 136 59 3 326 308 325 335 320 296 11 346 342 303 279 276 40 3 10 34 304 309 316 327 337 317 261 218 232 210 177 198 242 248
340 342 343 343 346 348 351 355 355 354 355 353 353 352 275 331 303 254 354 20 45 81 97 79 65 354 349 345 359 1 358 17 20 17 24 12 350 339 3 7 42 32 346 338 326 313 168 164 315 7 190 261 233 172 170 178 165 284 299 310 309 284 260 185 110 144 206 223 198 174 324 336 323 296 299 308 333 341 327 315 327 264 230 187 200 236 238
340 339 340 343 344 345 351 354 351 350 352 352 353 346 296 348 31 315 339 12 39 75 103 69 82 13 11 353 357 10 355 344 2 15 34 14 353 345 6 8 28 24 9 356 325 305 209 179 315 303 259 264 252 199 188 196 235 275 299 317 316 264 234 216 211 209 216 234 227 210 294 301 296 300 302 303 308 311 309 290 243 248 244 218 226 242 247
339 337 338 342 342 343 350 352 346 347 350 350 350 349 32 47 29 359 347 346 12 17 14 29 21 337 4 346 332 8 1 336 341 355 24 11 351 339 12 41 53 22 359 346 302 288 276 269 267 254 247 249 271 246 200 207 252 274 308 339 337 276 248 233 239 244 250 270 282 287 287 280 279 289 294 295 297 297 276 240 247 289 307 246 241 246 256
336 336 337 341 340 340 348 348 342 345 349 350 354 8 38 39 70 284 251 296 15 7 337 359 352 322 320 327 354 4 1 358 0 343 340 1 359 349 10 39 43 6 338 320 287 294 302 280 255 257 261 265 297 295 239 229 245 231 307 348 346 274 270 247 249 261 262 265 273 274 270 270 271 273 277 282 286 285 270 251 250 253 249 269 303 273 251
335 336 337 339 338 340 346 345 340 343 347 352 8 43 17 35 67 292 275 303 340 256 289 322 333 325 330 4 22 359 346 1 16 332 316 334 359 24 322 323 342 330 316 288 262 274 289 280 269 267 274 261 267 286 280 268 222 156 275 315 198 240 267 245 246 267 267 259 262 265 262 264 268 266 263 266 274 279 273 258 243 235 237 263 287 276 262
335 337 338 336 337 339 342 342 340 341 347 360 23 55 32 61 86 352 338 292 277 246 276 317 337 338 339 351 357 339 343 2 4 319 285 286 310 33 298 301 315 311 303 279 246 249 253 269 272 270 284 275 234 238 255 233 177 141 221 277 213 213 261 266 256 263 264 255 252 252 248 255 269 271 265 266 285 299 289 267 250 243 239 246 259 266 269
334 337 337 334 336 339 339 341 342 341 349 6 17 336 336 275 269 331 315 297 315 299 290 330 341 336 339 350 351 341 345 359 351 311 240 234 258 260 285 300 307 303 299 283 266 263 255 261 267 267 272 264 233 231 233 186 162 188 205 218 194 195 271 306 309 272 271 246 221 253 276 276 269 266 271 287 320 333 328 328 334 306 269 262 262 261 275
334 335 334 334 337 338 336 336 338 339 346 357 345 311 3 331 290 275 207 299 342 334 300 325 357 332 307 328 345 335 319 339 345 325 259 218 243 242 256 284 293 300 299 285 274 275 270 269 270 267 262 254 243 246 240 212 188 184 187 198 183 178 248 291 271 257 276 246 255 306 294 276 241 222 271 341 348 340 333 351 11 355 319 281 270 257 291
333 333 334 335 334 333 332 332 332 333 337 338 317 296 319 319 294 261 170 268 292 245 268 280 318 329 314 321 330 318 312 330 338 321 302 264 266 259 256 272 279 276 269 262 266 280 278 271 265 256 250 246 242 240 237 227 214 191 168 171 189 191 216 255 263 252 265 314 339 309 247 206 180 139 76 14 356 354 337 336 12 8 353 331 309 298 316
333 335 336 335 332 332 333 329 325 322 322 321 304 289 300 308 291 254 174 282 281 171 236 256 258 282 301 310 311 311 320 324 315 300 284 278 284 283 267 266 272 261 258 274 294 301 294 283 271 260 250 243 240 237 234 230 221 203 180 171 171 183 207 236 246 230 275 344 351 250 195 174 168 124 57 18 16 9 335 318 31 23 4 352 344 328 326
335 337 337 336 335 335 330 321 314 311 310 309 294 285 299 311 298 237 154 236 261 213 261 279 266 268 284 297 302 312 320 311 302 297 281 273 282 288 276 238 245 268 289 302 307 308 306 302 293 281 268 252 242 236 229 224 217 203 188 179 169 173 204 233 230 212 299 357 136 206 202 43 13 81 31 18 30 13 343 330 40 27 7 356 347 330 326
335 336 338 339 336 329 322 318 316 310 304 300 288 284 294 298 286 253 138 240 260 231 254 283 280 275 290 304 309 317 318 312 310 297 271 269 280 279 274 260 268 283 299 305 307 318 327 316 306 297 290 273 256 241 224 217 208 192 182 176 168 170 193 227 225 194 173 236 246 270 285 299 332 18 14 1 335 336 330 304 20 21 9 356 345 334 332
336 340 342 338 332 328 327 327 324 319 310 299 286 283 290 289 274 255 195 209 278 269 224 243 287 318 316 310 313 316 311 312 315 299 273 265 269 266 267 276 286 296 303 299 318 350 348 320 313 314 312 290 278 272 224 203 191 179 171 165 164 178 198 217 222 189 120 36 288 303 270 207 183 334 330 311 295 304 299 242 278 12 5 353 344 339 336
340 344 343 337 335 335 335 333 328 325 323 311 295 288 292 292 265 243 220 173 261 272 229 232 263 305 305 294 296 298 294 298 307 312 315 306 290 290 287 288 297 310 317 322 353 346 328 313 299 294 288 281 283 277 252 190 147 150 155 159 169 189 209 227 245 253 63 108 239 255 233 189 189 320 317 309 305 311 292 192 187 3 357 348 342 340 341
343 345 342 340 341 338 335 333 327 325 325 317 301 289 293 296 252 231 216 161 205 259 246 226 239 267 286 292 295 275 253 268 290 313 317 312 311 310 308 311 322 336 347 353 353 329 306 279 278 282 272 269 277 281 279 153 125 138 153 166 181 195 205 216 225 233 234 228 239 259 247 251 340 329 316 308 304 305 160 171 356 355 349 345 341 339 343
345 345 343 343 341 334 334 335 332 332 334 329 315 290 290 296 236 221 210 160 226 261 260 225 216 227 246 274 299 294 280 298 310 296 293 298 296 292 305 325 338 351 6 4 354 337 314 278 281 294 281 271 282 303 326 21 95 132 144 158 182 190 187 197 205 220 236 230 235 274 262 300 339 326 313 309 306 132 131 132 3 349 343 344 343 337 340
345 344 344 342 338 336 339 340 336 337 343 345 344 322 297 289 203 204 200 174 207 252 286 259 207 237 274 292 296 298 300 299 298 306 312 305 271 272 287 322 338 335 354 358 342 320 311 311 308 289 296 317 329 332 345 3 26 80 135 151 159 165 168 176 195 216 226 213 221 263 237 326 334 319 315 337 27 63 40 44 29 357 347 347 345 340 344
345 344 343 341 338 338 339 336 335 339 345 347 352 354 334 261 222 207 198 191 230 265 286 288 252 257 271 265 247 266 305 294 269 280 281 260 285 320 339 357 338 331 338 346 348 338 320 327 329 310 315 325 327 337 343 0 38 32 46 153 60 74 172 154 187 236 221 181 199 214 179 332 332 326 335 32 55 1 340 5 21 8 358 350 345 345 346
344 343 344 342 339 337 335 333 332 336 341 345 353 17 62 85 110 189 194 206 261 286 286 295 273 264 266 260 251 245 237 229 224 211 228 252 278 12 10 294 306 335 337 331 335 329 312 319 322 312 308 308 313 331 332 338 25 15 2 10 38 26 16 15 357 357 30 130 75 71 67 332 347 7 35 58 62 12 352 358 2 3 1 351 343 342 342
344 343 345 345 340 337 334 329 326 328 334 335 330 352 95 101 75 94 161 199 223 250 267 281 288 284 280 277 269 257 249 247 244 234 225 269 289 197 211 268 275 234 244 339 321 303 306 309 310 310 306 311 324 324 325 337 357 356 1 18 53 40 12 307 266 0 341 274 307 58 47 351 9 52 62 43 44 30 6 359 356 349 347 346 341 335 335
345 344 344 346 343 340 337 329 324 316 272 242 258 251 171 159 97 89 138 203 244 263 267 278 291 292 289 294 299 288 270 258 250 238 220 211 283 258 219 245 264 218 179 148 222 265 294 289 288 306 314 326 331 315 315 353 353 346 1 6 20 26 10 336 297 331 313 253 199 47 25 353 351 69 84 54 42 26 359 353 354 340 331 338 339 329 327
342 343 345 347 345 343 343 336 325 298 234 212 209 212 217 211 191 159 137 139 307 296 285 292 302 292 295 314 322 315 292 267 256 243 220 199 199 307 258 221 224 251 292 255 227 236 277 279 268 296 320 331 338 324 321 6 7 352 356 353 346 9 11 9 352 338 324 250 75 25 355 321 298 137 101 68 39 15 347 341 341 327 321 326 329 321 319
341 342 343 345 345 350 354 349 339 315 193 180 180 189 203 209 204 195 186 78 32 337 326 317 273 273 319 328 327 328 322 301 273 243 215 201 202 212 219 153 143 215 293 293 266 248 273 275 272 307 321 343 5 345 328 349 357 351 5 16 355 347 358 359 348 339 325 311 358 357 337 309 267 130 104 55 17 353 333 325 322 318 316 316 315 314 317
341 342 345 354 8 19 24 24 32 57 124 165 173 173 171 183 196 196 194 158 102 84 327 300 268 302 335 343 344 352 353 336 284 234 217 213 215 217 222 288 348 312 289 279 254 251 262 265 289 317 322 355 12 344 322 327 335 344 14 17 343 323 341 345 333 330 327 324 344 348 343 353 84 76 354 342 343 330 319 314 312 311 310 308 309 310 312
342 345 357 26 42 45 43 42 49 59 78 133 159 163 168 184 194 194 193 162 114 50 324 274 274 309 323 331 346 358 1 358 325 241 224 222 221 220 228 275 310 316 321 311 283 275 287 312 344 331 328 342 345 323 305 314 326 348 10 4 347 340 351 346 333 337 349 343 341 340 330 317 314 308 303 305 309 305 301 299 299 299 302 303 305 305 305
340 346 9 64 73 66 54 45 48 54 61 84 123 167 195 209 211 210 215 217 194 179 257 245 279 308 312 318 346 3 8 15 28 49 207 215 210 204 209 248 289 322 340 341 352 1 350 352 348 341 345 348 334 320 310 311 339 23 3 353 353 355 351 348 346 340 328 325 326 324 307 288 286 286 285 285 282 277 280 283 283 285 291 292 294 298 300
330 329 325 149 132 102 73 50 43 45 55 63 50 313 261 237 225 213 209 219 227 236 309 299 297 307 305 307 333 5 24 37 54 69 76 87 121 145 139 88 1 328 321 344 23 14 355 347 328 311 320 325 318 322 338 349 18 25 359 348 348 349 347 348 345 333 322 322 324 319 304 291 284 280 279 277 268 256 264 270 270 272 278 279 280 286 289
314 302 274 211 194 192 165 84 48 34 16 1 7 6 351 294 237 216 206 210 215 210 61 6 292 300 299 296 317 25 45 51 61 67 66 70 77 75 74 85 22 3 37 26 355 354 344 334 318 296 316 334 341 347 350 355 14 14 352 347 349 350 348 348 345 335 327 324 321 312 298 289 286 282 278 274 265 253 254 261 263 266 270 271 272 277 280
300 282 269 243 224 219 219 226 260 17 335 305 93 85 55 356 222 202 196 195 193 178 87 196 262 312 316 292 198 100 71 63 63 58 54 61 65 60 76 106 8 16 58 50 328 335 350 334 326 322 335 349 7 21 339 339 359 356 347 348 351 350 345 342 342 338 330 326 325 315 304 302 306 305 299 287 269 249 245 255 261 263 267 272 275 279 281
298 273 262 254 243 230 223 234 248 269 285 279 267 223 239 245 202 172 169 176 181 177 106 12 320 335 326 295 280 216 146 116 67 45 34 24 26 32 50 70 46 356 118 114 7 337 341 319 310 320 336 348 2 8 338 350 5 351 343 344 348 346 342 340 341 341 338 339 341 333 327 334 332 323 320 314 286 252 244 254 260 262 266 269 269 272 276
301 277 262 254 247 236 231 239 253 269 274 273 280 279 264 239 197 170 166 174 189 195 160 95 1 303 291 299 297 272 150 106 12 28 19 329 331 33 16 15 27 348 346 58 87 284 278 245 317 332 3 31 21 16 1 2 358 344 337 340 345 343 340 339 342 341 339 344 350 348 339 334 324 316 323 333 321 291 269 259 261 267 270 262 252 255 261
309 294 274 256 246 241 239 241 251 270 282 282 285 286 255 212 188 168 168 180 194 223 163 110 81 302 301 332 323 284 121 81 349 39 353 312 354 70 11 343 5 7 351 18 55 328 321 340 325 334 353 9 26 52 3 348 346 340 335 337 341 339 336 339 346 344 340 344 351 349 339 333 330 331 340 344 338 323 301 274 266 272 276 269 258 248 239
320 313 291 261 244 239 240 248 257 265 273 277 279 275 222 201 187 168 178 196 176 39 340 130 93 55 342 339 311 258 155 120 255 186 185 292 352 43 77 12 9 353 307 349 24 13 352 350 358 352 339 331 350 24 353 339 339 339 338 339 343 345 346 349 351 344 337 342 349 347 342 345 350 351 347 341 339 337 327 304 281 274 275 278 275 262 248
328 326 308 257 231 229 237 249 253 250 261 283 280 203 180 186 181 177 207 231 229 209 194 104 108 166 166 218 273 243 177 163 325 2 130 277 346 23 75 87 65 286 334 24 29 340 326 340 13 2 347 354 7 351 339 340 340 339 339 339 341 347 349 346 344 341 340 347 354 352 349 352 357 354 349 345 343 342 340 333 316 292 278 275 272 267 266
335 342 331 212 195 213 241 246 244 247 264 291 137 152 165 173 177 192 229 238 229 213 151 103 241 222 185 192 247 220 188 245 310 12 357 241 178 43 54 87 133 194 10 18 8 221 315 11 67 46 349 340 326 313 321 342 344 334 332 333 336 344 344 336 336 343 348 352 356 356 354 356 359 358 355 351 348 347 347 342 331 310 289 279 274 268 262
341 356 61 166 138 87 284 261 254 232 172 147 137 144 161 144 139 238 307 139 215 217 133 130 246 240 157 158 234 207 191 222 13 44 267 223 112 37 8 86 151 162 24 317 250 204 37 25 64 95 285 284 296 308 321 337 330 314 318 330 330 338 339 330 334 349 357 358 357 356 355 355 356 358 359 355 352 350 346 340 337 331 314 293 282 276 268
316 278 175 150 144 196 233 174 126 125 153 170 135 127 139 58 54 334 310 353 215 241 126 187 239 212 165 197 264 250 176 129 53 17 241 223 73 174 177 267 269 99 68 310 253 175 59 5 354 2 313 313 323 323 323 323 310 303 322 338 329 327 332 329 336 348 354 354 350 349 349 351 352 353 354 354 353 352 351 348 346 343 337 323 307 288 269
257 204 149 144 217 201 166 144 134 134 216 303 25 66 67 36 48 231 280 1 338 240 192 200 235 213 175 186 254 268 191 147 147 207 210 208 215 158 111 125 244 97 74 287 246 144 93 43 330 341 321 315 317 316 317 317 306 301 311 323 319 320 326 330 333 336 337 340 344 346 347 349 350 350 352 354 353 352 355 357 352 345 343 339 330 318 287
211 149 133 171 164 147 141 141 144 251 306 336 46 51 20 336 298 207 75 13 298 264 226 162 303 294 237 178 192 232 227 179 157 142 127 255 269 106 105 227 238 82 75 254 238 103 85 91 148 264 289 307 313 311 316 318 311 305 307 308 311 319 324 326 329 333 336 339 343 348 351 349 348 350 355 356 354 353 356 0 360 356 352 346 340 340 333
218 161 136 127 134 139 137 125 50 350 14 50 7 332 296 315 347 352 7 233 257 274 264 193 207 242 224 181 175 212 231 211 123 101 93 291 273 117 120 251 22 69 207 238 188 68 63 84 218 247 282 314 314 308 314 317 309 300 298 299 306 320 323 318 321 331 338 341 337 341 348 350 349 352 356 358 2 6 5 5 5 360 353 349 349 354 355
180 168 159 129 121 137 135 26 11 61 82 61 26 343 324 334 349 338 300 279 275 291 271 259 274 303 256 191 177 210 248 112 96 101 107 264 262 104 82 17 33 91 184 129 69 63 58 198 238 271 297 317 311 308 318 321 316 307 295 293 303 324 333 330 326 329 337 343 342 339 344 350 353 358 2 5 9 11 9 9 9 4 356 353 357 360 1
133 141 145 111 61 86 63 329 310 93 59 30 77 135 313 313 307 280 282 284 277 262 260 264 318 335 290 253 179 131 151 63 69 77 62 282 287 86 92 257 250 198 46 47 58 75 195 169 213 288 306 320 316 317 325 325 325 320 301 294 309 338 349 343 336 330 333 340 342 343 346 351 356 3 9 11 13 13 11 10 10 9 7 7 8 6 6
130 88 44 23 349 352 52 347 340 33 107 240 198 176 202 248 251 239 232 220 214 262 292 280 177 197 252 268 176 132 186 84 60 58 222 248 350 1 234 239 256 56 57 43 23 354 318 274 279 308 323 327 319 319 322 321 319 317 300 291 304 336 354 344 334 331 332 333 338 348 354 355 358 5 11 12 13 15 15 13 11 13 17 20 17 13 13
174 128 96 87 304 288 102 16 331 306 211 221 205 190 199 213 221 228 227 204 209 270 292 283 181 183 235 272 251 217 53 82 78 276 146 104 70 289 222 86 41 43 43 15 352 322 274 274 290 306 311 309 308 312 318 323 325 326 319 298 288 302 334 345 342 347 348 344 347 358 4 2 4 10 12 13 15 16 16 16 15 18 23 26 23 20 21
222 84 102 105 293 308 104 212 225 215 211 212 205 203 208 214 228 248 246 219 219 255 280 279 177 188 241 159 117 260 336 69 83 315 32 83 58 300 28 58 41 32 86 354 283 258 256 275 298 305 303 307 313 316 322 331 334 332 330 315 294 293 317 340 348 355 356 353 355 4 10 9 11 13 15 16 17 15 14 15 17 21 25 28 30 30 29
191 100 109 170 222 214 218 235 246 248 238 230 229 234 227 224 274 277 257 221 218 258 280 296 66 356 328 30 86 59 332 33 52 313 337 69 69 349 21 36 340 289 197 193 228 247 256 261 266 279 291 300 308 312 315 324 328 326 328 327 312 300 303 320 338 356 3 359 357 5 15 18 17 18 19 20 19 16 15 16 19 23 25 26 30 34 35
160 111 126 175 205 224 227 209 220 275 264 267 296 304 267 235 258 266 258 241 274 283 258 189 116 84 318 344 47 43 349 5 61 1 356 38 64 40 26 48 296 287 262 225 228 244 252 251 261 284 294 297 308 316 319 327 330 328 327 326 314 304 313 334 348 358 6 5 4 14 26 30 25 22 22 23 20 18 19 20 22 26 28 27 28 31 34
113 138 198 207 239 270 284 10 20 287 288 305 310 282 249 239 262 265 247 205 282 346 12 35 52 54 12 12 39 32 315 281 99 77 21 346 156 141 108 158 220 234 239 235 237 248 257 264 277 293 294 298 309 318 322 328 331 327 327 329 331 346 13 22 22 16 6 354 352 24 41 41 32 26 28 31 28 25 26 27 29 30 32 32 32 33 33
356 299 244 219 211 218 222 223 253 261 271 279 260 233 200 200 246 245 211 147 74 37 28 4 8 50 44 34 40 36 294 320 67 61 306 245 174 126 139 223 229 225 228 242 248 250 259 271 274 277 290 303 310 314 317 322 326 332 336 341 5 48 50 43 39 32 19 360 345 4 43 51 45 37 38 39 36 31 29 30 31 32 33 34 36 38 37
196 257 283 273 234 202 186 201 244 243 244 248 241 214 185 208 237 222 155 107 78 54 67 165 101 67 55 63 178 114 29 18 25 327 260 240 182 151 181 213 227 220 220 243 267 276 270 264 261 260 271 284 293 304 316 325 338 350 353 356 36 69 61 46 40 39 33 17 2 1 19 55 57 49 43 37 32 29 29 28 29 32 33 34 35 39 42